GSAT0207 (GALILEO 15)

Last updated on Wed Sep 09 2026 00:02:49 GMT+0000 (Coordinated Universal Time)

1 41859U 16069A 26251.04083436 .00000019 00000+0 00000+0 0 9991 2 41859 55.5509 98.7920 0003186 357.9968 2.0965 1.70473742 60810
UTC large
Height (km)
Speed (km/s)
/
Latitude / Longitude
Inclination (degrees)
Orbital Period (minutes)
Azimuth
Elevation
Range (km)
Doppler Factor

Next 0 passes for location: London (51.5072 / 0.1276)

No passes found over London.
GSAT0207 (GALILEO 15)